Карточка аэропорта UNOO

Внимание!
Информация на этой странице в стадии наполнения.
Если вы не увидели какой-то информации, или заметили неточность - пожалуйста сообщите нам!
Спасибо!
Команда RU-STAFF
Название аэропортаЦентральный
Название аэропорта (англ.)Tsentralny
Превышение312 ft. (95.1 m.)
Координаты54°58.02', 73°18.6'
Высота перехода900m
Эшелон переходаQFE>=733:FL50; QFE<733:FL60;
Коды ответчика5440-5457
Зона ОрВДНовосибирск РПИ (UNNT)
Данные METARUNOO 192355Z 26001MPS 0200 0150SE R25/M0300N FG VV002 15/15 Q0998 R25/CLRD60 NOSIG RMK QBB060 OBST OBSC QFE741
Проноз погоды (TAF)UNOO 192300Z 2000/2024 VRB01MPS 8000 SCT030CB TEMPO 2000/2003 0300 FG VV002 BECMG 2003/2005 24003G10MPS TEMPO 2006/2015 -SHRA BKN010 BKN020CB BECMG 2013/2015 26003MPS
NOTAMshow/hide NOTAM
AWOS   TABLE

Информация о ВПП

ВПП Длина ВПП (м.) Покрытие Курс ВПП Частота ILS
072501Асфальтобетон65108.3
252501Асфальтобетон245110.1

Диспетчерские позиции

Позывной Наименование органа УВД Частота
UNOO_GNDОмск-Руление121.700
UNOO_TWRОмск-Старт119.000
UNOO_APPОмск-Подход131.200
UNOO_R_APPОмск-Круг119.050



Спутниковое изображение